This is the latest recevied weather packets stored in our database for station/object K6CED. If no packets are shown the sender has not sent any weather packets the latest 10 day(s).
| Time | Temp. | Humidity | Pressure | Rain* | Wind** | Luminosity | Snow |
|---|---|---|---|---|---|---|---|
| 1778111012 | 23.33° C | 55% | 1017.2 hPa | 0 mm | - | 406 W/m² | - |
| 1778110710 | 23.89° C | 53% | 1017.1 hPa | 0 mm | - | 424 W/m² | - |
| 1778110400 | 23.89° C | 53% | 1017.2 hPa | 0 mm | - | 443 W/m² | - |
| 1778110097 | 23.89° C | 53% | 1017.1 hPa | 0 mm | - | 460 W/m² | - |
| 1778109793 | 23.89° C | 53% | 1017.2 hPa | 0 mm | - | 477 W/m² | - |
| 1778109490 | 23.89° C | 52% | 1017.2 hPa | 0 mm | - | 492 W/m² | - |
| 1778109188 | 24.44° C | 51% | 1017.1 hPa | 0 mm | - | 510 W/m² | - |
| 1778108885 | 24.44° C | 51% | 1017.2 hPa | 0 mm | - | 521 W/m² | - |
| 1778108581 | 23.89° C | 51% | 1017.2 hPa | 0 mm | - | 544 W/m² | - |
| 1778108277 | 24.44° C | 51% | 1017.2 hPa | 0 mm | - | 557 W/m² | - |
| 1778107974 | 25° C | 49% | 1017.3 hPa | 0 mm | - | 577 W/m² | - |
| 1778107665 | 25° C | 49% | 1017.2 hPa | 0 mm | - | 593 W/m² | - |
| 1778107363 | 24.44° C | 50% | 1017.2 hPa | 0 mm | - | 612 W/m² | - |
| 1778107059 | 24.44° C | 50% | 1017.3 hPa | 0 mm | - | 628 W/m² | - |
| 1778106754 | 24.44° C | 49% | 1017.4 hPa | 0 mm | - | 637 W/m² | - |
| 1778106452 | 25° C | 48% | 1017.4 hPa | 0 mm | - | 656 W/m² | - |
| 1778106147 | 24.44° C | 49% | 1017.4 hPa | 0 mm | - | 670 W/m² | - |
| 1778105845 | 25° C | 48% | 1017.6 hPa | 0 mm | - | 685 W/m² | - |
| 1778105543 | 25.56° C | 47% | 1017.6 hPa | 0 mm | - | 697 W/m² | - |
| 1778105240 | 25° C | 48% | 1017.6 hPa | 0 mm | - | 713 W/m² | - |
| 1778104934 | 25.56° C | 47% | 1017.7 hPa | 0 mm | - | 725 W/m² | - |
| 1778104632 | 25° C | 47% | 1017.6 hPa | 0 mm | - | 739 W/m² | - |
| 1778104327 | 25° C | 47% | 1017.7 hPa | 0 mm | - | 752 W/m² | - |
| 1778104024 | 25° C | 46% | 1017.7 hPa | 0 mm | - | 764 W/m² | - |
| 1778103721 | 25.56° C | 46% | 1017.8 hPa | 0 mm | - | 774 W/m² | - |
* Rain latest hour (hover to see other rain measurements)
** Current wind speed in m/s (hover to see current wind gust speed)